PDA76A DTTJ-GAKL

Flight info

Callsign PDA76A
Flight time 3h 4m
Altitude 38000
Route MANED1A MANED V191 EBA UG362 BOD UG855 TMS UB727 TESTI
Aircraft IL76/H-SDGWRY/L

Departure

Time 2026-04-28 05:50
Airport Djerba Zarzis International Airport (DTTJ)

Arrival

Time 2026-04-28 08:55
Airport Kidal Airport (GAKL)
Time Latitude Longitude Altitude Speed Heading
2026-04-28 05:30 33.87304 10.78159 29 ft 0 kts 178°
2026-04-28 05:38 33.87317 10.78158 30 ft 2 kts 178°
2026-04-28 05:38 33.87332 10.78158 29 ft 2 kts 178°
2026-04-28 05:39 33.87347 10.78157 29 ft 2 kts 178°
2026-04-28 05:39 33.87362 10.78156 29 ft 2 kts 178°
2026-04-28 05:39 33.87377 10.78159 29 ft 2 kts 202°
2026-04-28 05:39 33.87390 10.78169 28 ft 2 kts 223°
2026-04-28 05:40 33.87398 10.78183 28 ft 2 kts 245°
2026-04-28 05:40 33.87402 10.78200 28 ft 1 kts 266°
2026-04-28 05:40 33.87403 10.78208 28 ft 0 kts 269°
2026-04-28 05:41 33.87402 10.78208 28 ft 0 kts 269°
2026-04-28 05:45 33.87402 10.78186 28 ft 5 kts 268°
2026-04-28 05:46 33.87399 10.78107 28 ft 14 kts 268°
2026-04-28 05:46 33.87396 10.77970 28 ft 16 kts 268°
2026-04-28 05:46 33.87392 10.77830 28 ft 16 kts 268°
2026-04-28 05:46 33.87389 10.77686 27 ft 18 kts 269°
2026-04-28 05:47 33.87385 10.77526 25 ft 19 kts 268°
2026-04-28 05:47 33.87380 10.77365 24 ft 20 kts 268°
2026-04-28 05:47 33.87367 10.77189 20 ft 22 kts 268°
2026-04-28 05:47 33.87362 10.77000 17 ft 23 kts 268°
2026-04-28 05:48 33.87357 10.76801 17 ft 23 kts 269°
2026-04-28 05:48 33.87354 10.76601 17 ft 23 kts 270°
2026-04-28 05:48 33.87349 10.76403 17 ft 23 kts 267°
2026-04-28 05:48 33.87341 10.76204 17 ft 23 kts 269°
2026-04-28 05:49 33.87388 10.76051 17 ft 18 kts 341°
2026-04-28 05:49 33.87489 10.76046 17 ft 8 kts 19°
2026-04-28 05:49 33.87507 10.76089 17 ft 9 kts 89°
2026-04-28 05:49 33.87518 10.76450 17 ft 82 kts 89°
2026-04-28 05:50 33.87539 10.77438 40 ft 147 kts 88°
2026-04-28 05:50 33.87565 10.78708 618 ft 154 kts 84°
2026-04-28 05:50 33.87968 10.79857 1332 ft 157 kts 44°
2026-04-28 05:50 33.88972 10.80212 2242 ft 160 kts
2026-04-28 05:51 33.89967 10.79635 2956 ft 167 kts 319°
2026-04-28 05:51 33.90443 10.78373 3548 ft 172 kts 276°
2026-04-28 05:51 33.90132 10.77029 4124 ft 171 kts 233°
2026-04-28 05:51 33.89182 10.76268 4692 ft 167 kts 191°
2026-04-28 05:52 33.88015 10.76193 5098 ft 179 kts 175°
2026-04-28 05:52 33.86646 10.76250 5156 ft 212 kts 179°
2026-04-28 05:52 33.85067 10.76145 5242 ft 239 kts 184°
2026-04-28 05:52 33.83340 10.75880 5682 ft 261 kts 188°
2026-04-28 05:53 33.81585 10.75523 6814 ft 256 kts 190°
2026-04-28 05:53 33.79866 10.75128 7814 ft 254 kts 191°
2026-04-28 05:53 33.78090 10.74697 8305 ft 274 kts 192°
2026-04-28 05:53 33.76132 10.74209 8779 ft 294 kts 192°
2026-04-28 05:54 33.74158 10.73712 9703 ft 295 kts 193°
2026-04-28 05:54 33.72148 10.73206 10594 ft 298 kts 193°
2026-04-28 05:54 33.70087 10.72682 11216 ft 308 kts 193°
2026-04-28 05:54 33.67968 10.72146 11996 ft 312 kts 194°
2026-04-28 05:55 33.65848 10.71608 12803 ft 314 kts 194°
2026-04-28 05:55 33.63715 10.71067 13584 ft 317 kts 194°
2026-04-28 05:55 33.61554 10.70522 14304 ft 321 kts 195°
2026-04-28 05:55 33.59366 10.69966 14971 ft 325 kts 195°
2026-04-28 05:56 33.57140 10.69403 15635 ft 328 kts 195°
2026-04-28 05:56 33.54899 10.68836 16279 ft 332 kts 196°
2026-04-28 05:56 33.52640 10.68266 16941 ft 334 kts 196°
2026-04-28 05:56 33.50345 10.67684 17556 ft 337 kts 196°
2026-04-28 05:57 33.48033 10.67101 18142 ft 341 kts 197°
2026-04-28 05:57 33.45701 10.66511 18717 ft 344 kts 197°
2026-04-28 05:57 33.43368 10.65924 19250 ft 348 kts 197°
2026-04-28 05:57 33.40997 10.65327 19804 ft 351 kts 197°
2026-04-28 05:58 33.38582 10.64720 20353 ft 354 kts 198°
2026-04-28 05:58 33.36161 10.64111 20858 ft 357 kts 198°
2026-04-28 05:58 33.33753 10.63506 21377 ft 359 kts 198°
2026-04-28 05:58 33.31295 10.62889 21880 ft 362 kts 198°
2026-04-28 05:59 33.28816 10.62268 22329 ft 366 kts 198°
2026-04-28 05:59 33.26320 10.61639 22774 ft 369 kts 199°
2026-04-28 05:59 33.23783 10.61005 23241 ft 371 kts 199°
2026-04-28 05:59 33.21276 10.60376 23755 ft 372 kts 199°
2026-04-28 06:00 33.18746 10.59746 24260 ft 372 kts 199°
2026-04-28 06:00 33.16189 10.59106 24691 ft 374 kts 200°
2026-04-28 06:00 33.13677 10.58430 25136 ft 370 kts 206°
2026-04-28 06:00 33.11516 10.56938 25552 ft 351 kts 226°
2026-04-28 06:01 33.09621 10.55144 26007 ft 352 kts 225°
2026-04-28 06:01 33.07693 10.53302 26414 ft 354 kts 226°
2026-04-28 06:01 33.05793 10.51494 26874 ft 353 kts 226°
2026-04-28 06:01 33.03862 10.49655 27268 ft 355 kts 226°
2026-04-28 06:02 33.01922 10.47810 27687 ft 355 kts 226°
2026-04-28 06:02 33.00005 10.45992 28042 ft 357 kts 226°
2026-04-28 06:02 32.98031 10.44114 28443 ft 357 kts 226°
2026-04-28 06:02 32.96050 10.42237 28879 ft 357 kts 226°
2026-04-28 06:03 32.94108 10.40395 29246 ft 358 kts 226°
2026-04-28 06:03 32.92175 10.38561 29583 ft 358 kts 226°
2026-04-28 06:03 32.90213 10.36702 29958 ft 359 kts 226°
2026-04-28 06:03 32.88251 10.34843 30249 ft 361 kts 225°
2026-04-28 06:04 32.86295 10.32995 30551 ft 364 kts 225°
2026-04-28 06:04 32.84294 10.31105 30859 ft 366 kts 225°
2026-04-28 06:04 32.82310 10.29231 31163 ft 368 kts 225°
2026-04-28 06:04 32.80306 10.27334 31482 ft 369 kts 225°
2026-04-28 06:05 32.78285 10.25429 31735 ft 372 kts 225°
2026-04-28 06:05 32.76245 10.23507 32066 ft 373 kts 225°
2026-04-28 06:05 32.74225 10.21601 32299 ft 376 kts 225°
2026-04-28 06:05 32.72160 10.19656 32593 ft 378 kts 225°
2026-04-28 06:06 32.70089 10.17708 32828 ft 381 kts 225°
2026-04-28 06:06 32.68029 10.15773 33058 ft 383 kts 225°
2026-04-28 06:06 32.65925 10.13792 33317 ft 385 kts 225°
2026-04-28 06:06 32.63811 10.11805 33528 ft 387 kts 225°
2026-04-28 06:07 32.61706 10.09827 33731 ft 390 kts 225°
2026-04-28 06:07 32.59583 10.07839 33970 ft 387 kts 225°
2026-04-28 06:07 32.55368 10.03895 33950 ft 384 kts 225°
2026-04-28 06:08 32.51180 9.99977 33952 ft 387 kts 224°
2026-04-28 06:08 32.46954 9.96026 33951 ft 386 kts 224°
2026-04-28 06:09 32.42710 9.92066 33946 ft 386 kts 224°
2026-04-28 06:09 32.38514 9.88158 33943 ft 387 kts 224°
2026-04-28 06:10 32.34288 9.84220 33941 ft 387 kts 224°
2026-04-28 06:10 32.30070 9.80298 33934 ft 386 kts 225°
2026-04-28 06:11 32.25831 9.76363 33924 ft 389 kts 224°
2026-04-28 06:11 32.21584 9.72420 33916 ft 387 kts 224°
2026-04-28 06:12 32.17361 9.68509 33910 ft 388 kts 224°
2026-04-28 06:12 32.13122 9.64587 33906 ft 388 kts 224°
2026-04-28 06:13 32.08884 9.60670 33907 ft 388 kts 224°
2026-04-28 06:13 32.04648 9.56759 33903 ft 387 kts 224°
2026-04-28 06:14 32.00406 9.52848 33908 ft 386 kts 224°
2026-04-28 06:14 31.96160 9.48936 33911 ft 386 kts 224°
2026-04-28 06:15 31.91924 9.45038 33914 ft 388 kts 224°
2026-04-28 06:15 31.87694 9.41155 33909 ft 386 kts 224°
2026-04-28 06:16 31.83477 9.37284 33914 ft 386 kts 224°
2026-04-28 06:16 31.79232 9.33394 33927 ft 385 kts 224°
2026-04-28 06:17 31.74986 9.29506 33931 ft 386 kts 223°
2026-04-28 06:18 31.68478 9.24016 33937 ft 390 kts 217°
2026-04-28 06:18 31.63792 9.20758 33927 ft 390 kts 217°
2026-04-28 06:19 31.59117 9.17522 33932 ft 391 kts 217°
2026-04-28 06:19 31.54448 9.14291 33930 ft 389 kts 217°
2026-04-28 06:20 31.49771 9.11054 33931 ft 389 kts 217°
2026-04-28 06:20 31.45104 9.07834 33930 ft 390 kts 217°
2026-04-28 06:21 31.40460 9.04628 33930 ft 388 kts 216°
2026-04-28 06:21 31.35803 9.01417 33931 ft 389 kts 217°
2026-04-28 06:22 31.31122 8.98196 33934 ft 390 kts 217°
2026-04-28 06:22 31.26447 8.94982 33930 ft 389 kts 216°
2026-04-28 06:23 31.21777 8.91776 33932 ft 389 kts 216°
2026-04-28 06:23 31.17107 8.88573 33929 ft 389 kts 217°
2026-04-28 06:24 31.12450 8.85380 33931 ft 389 kts 216°
2026-04-28 06:24 31.07779 8.82182 33937 ft 389 kts 216°
2026-04-28 06:25 31.03127 8.79004 33935 ft 388 kts 216°
2026-04-28 06:25 30.98460 8.75817 33932 ft 389 kts 216°
2026-04-28 06:26 30.93809 8.72649 33936 ft 391 kts 216°
2026-04-28 06:26 30.89115 8.69450 33940 ft 391 kts 216°
2026-04-28 06:27 30.84421 8.66255 33936 ft 390 kts 217°
2026-04-28 06:27 30.79762 8.63087 33937 ft 390 kts 217°
2026-04-28 06:28 30.75093 8.59915 33931 ft 389 kts 216°
2026-04-28 06:28 30.70405 8.56738 33933 ft 389 kts 217°
2026-04-28 06:29 30.65715 8.53562 33932 ft 390 kts 216°
2026-04-28 06:29 30.61036 8.50391 33923 ft 390 kts 216°
2026-04-28 06:30 30.56345 8.47227 33934 ft 390 kts 217°
2026-04-28 06:30 30.51665 8.44064 33930 ft 389 kts 217°
2026-04-28 06:31 30.47000 8.40917 33940 ft 389 kts 217°
2026-04-28 06:31 30.42336 8.37740 33934 ft 390 kts 217°
2026-04-28 06:32 30.37655 8.34555 33940 ft 390 kts 217°
2026-04-28 06:32 30.32976 8.31373 33950 ft 390 kts 216°
2026-04-28 06:33 30.28274 8.28180 33956 ft 392 kts 217°
2026-04-28 06:33 30.23569 8.24995 33958 ft 393 kts 217°
2026-04-28 06:34 30.18866 8.21803 33952 ft 392 kts 217°
2026-04-28 06:34 30.14155 8.18615 33951 ft 391 kts 216°
2026-04-28 06:35 30.09460 8.15442 33952 ft 391 kts 217°
2026-04-28 06:35 30.04775 8.12277 33954 ft 391 kts 217°
2026-04-28 06:36 30.00083 8.09098 33947 ft 390 kts 217°
2026-04-28 06:36 29.95415 8.05942 33949 ft 390 kts 217°
2026-04-28 06:37 29.90737 8.02778 33948 ft 390 kts 217°
2026-04-28 06:37 29.86032 7.99600 33954 ft 389 kts 217°
2026-04-28 06:38 29.81373 7.96457 33956 ft 389 kts 217°
2026-04-28 06:38 29.76676 7.93279 33951 ft 389 kts 217°
2026-04-28 06:39 29.72015 7.90130 33959 ft 387 kts 217°
2026-04-28 06:39 29.67363 7.86994 33957 ft 390 kts 217°
2026-04-28 06:40 29.62696 7.83848 33960 ft 390 kts 217°
2026-04-28 06:40 29.58002 7.80687 33958 ft 388 kts 217°
2026-04-28 06:41 29.53337 7.77551 33958 ft 388 kts 217°
2026-04-28 06:41 29.48697 7.74430 33958 ft 390 kts 217°
2026-04-28 06:42 29.44040 7.71267 33963 ft 388 kts 217°
2026-04-28 06:42 29.39399 7.68122 33963 ft 387 kts 217°
2026-04-28 06:43 29.34761 7.64985 33968 ft 386 kts 217°
2026-04-28 06:43 29.30124 7.61850 33969 ft 388 kts 217°
2026-04-28 06:44 29.25482 7.58713 33968 ft 387 kts 217°
2026-04-28 06:44 29.20847 7.55586 33965 ft 386 kts 217°
2026-04-28 06:45 29.16213 7.52459 33969 ft 387 kts 217°
2026-04-28 06:45 29.11559 7.49327 33971 ft 388 kts 217°
2026-04-28 06:46 29.06922 7.46208 33970 ft 386 kts 217°
2026-04-28 06:46 29.02290 7.43095 33969 ft 387 kts 217°
2026-04-28 06:47 28.97650 7.39982 33967 ft 387 kts 217°
2026-04-28 06:47 28.92987 7.36857 33969 ft 389 kts 217°
2026-04-28 06:48 28.88349 7.33748 33987 ft 388 kts 217°
2026-04-28 06:48 28.83698 7.30640 33981 ft 386 kts 216°
2026-04-28 06:49 28.79093 7.27558 33986 ft 386 kts 217°
2026-04-28 06:49 28.74460 7.24468 33986 ft 385 kts 217°
2026-04-28 06:50 28.69859 7.21398 33992 ft 383 kts 216°
2026-04-28 06:50 28.65248 7.18326 33994 ft 385 kts 217°
2026-04-28 06:51 28.60624 7.15248 33988 ft 385 kts 217°
2026-04-28 06:51 28.56001 7.12173 33994 ft 384 kts 216°
2026-04-28 06:52 28.51387 7.09112 33992 ft 383 kts 217°
2026-04-28 06:52 28.46788 7.06060 33998 ft 382 kts 216°
2026-04-28 06:53 28.42192 7.03011 34001 ft 381 kts 217°
2026-04-28 06:53 28.37632 6.99990 33997 ft 381 kts 216°
2026-04-28 06:54 28.33034 6.96948 34002 ft 383 kts 216°
2026-04-28 06:54 28.28410 6.93895 34005 ft 383 kts 216°
2026-04-28 06:55 28.23811 6.90857 34016 ft 383 kts 216°
2026-04-28 06:55 28.19192 6.87811 34014 ft 384 kts 216°
2026-04-28 06:56 28.14574 6.84767 34011 ft 382 kts 216°
2026-04-28 06:56 28.12127 6.83599 33981 ft 394 kts 201°
2026-04-28 06:56 28.09423 6.82877 34018 ft 395 kts 201°
2026-04-28 06:57 28.04068 6.81427 34013 ft 394 kts 201°
2026-04-28 06:57 27.98730 6.79988 34013 ft 394 kts 201°
2026-04-28 06:58 27.93380 6.78545 34015 ft 397 kts 201°
2026-04-28 06:58 27.88031 6.77102 34019 ft 395 kts 200°
2026-04-28 06:59 27.82690 6.75669 34017 ft 397 kts 201°
2026-04-28 06:59 27.77323 6.74225 34019 ft 395 kts 201°
2026-04-28 07:00 27.71933 6.72774 34015 ft 398 kts 201°
2026-04-28 07:00 27.66580 6.71336 34010 ft 394 kts 201°
2026-04-28 07:01 27.61230 6.69903 34013 ft 395 kts 201°
2026-04-28 07:01 27.55880 6.68473 34013 ft 397 kts 201°
2026-04-28 07:02 27.50538 6.67041 34014 ft 394 kts 201°
2026-04-28 07:02 27.45169 6.65608 34013 ft 395 kts 200°
2026-04-28 07:03 27.39829 6.64180 34014 ft 395 kts 200°
2026-04-28 07:03 27.34461 6.62753 34019 ft 396 kts 201°
2026-04-28 07:04 27.29058 6.61310 34018 ft 397 kts 201°
2026-04-28 07:04 27.23688 6.59878 34016 ft 397 kts 200°
2026-04-28 07:05 27.18341 6.58460 34018 ft 395 kts 200°
2026-04-28 07:05 27.12977 6.57032 34015 ft 395 kts 200°
2026-04-28 07:06 27.07646 6.55621 34021 ft 394 kts 201°
2026-04-28 07:06 27.02286 6.54199 34024 ft 394 kts 200°
2026-04-28 07:07 26.96926 6.52778 34026 ft 395 kts 201°
2026-04-28 07:07 26.91566 6.51359 34025 ft 394 kts 201°
2026-04-28 07:08 26.86200 6.49943 34043 ft 398 kts 201°
2026-04-28 07:08 26.80818 6.48522 34047 ft 396 kts 201°
2026-04-28 07:09 26.75444 6.47102 34053 ft 397 kts 201°
2026-04-28 07:09 26.70060 6.45682 34046 ft 397 kts 201°
2026-04-28 07:10 26.64724 6.44277 34045 ft 396 kts 201°
2026-04-28 07:10 26.59315 6.42856 34042 ft 397 kts 201°
2026-04-28 07:11 26.53940 6.41441 34037 ft 396 kts 200°
2026-04-28 07:11 26.48564 6.40032 34040 ft 398 kts 201°
2026-04-28 07:12 26.43178 6.38618 34053 ft 398 kts 201°
2026-04-28 07:12 26.37770 6.37201 34065 ft 398 kts 201°
2026-04-28 07:13 26.32369 6.35785 34078 ft 398 kts 201°
2026-04-28 07:13 26.26967 6.34375 34114 ft 400 kts 201°
2026-04-28 07:14 26.21539 6.32955 34112 ft 398 kts 200°
2026-04-28 07:14 26.16180 6.31557 34115 ft 398 kts 200°
2026-04-28 07:15 26.10773 6.30146 34123 ft 400 kts 200°
2026-04-28 07:15 26.05365 6.28736 34132 ft 398 kts 201°
2026-04-28 07:16 25.99917 6.27320 34135 ft 400 kts 201°
2026-04-28 07:16 25.94524 6.25887 34139 ft 400 kts 201°
2026-04-28 07:17 25.89136 6.24458 34141 ft 398 kts 201°
2026-04-28 07:17 25.83719 6.23019 34133 ft 400 kts 201°
2026-04-28 07:18 25.78317 6.21585 34125 ft 399 kts 201°
2026-04-28 07:18 25.72937 6.20159 34124 ft 398 kts 201°
2026-04-28 07:19 25.67574 6.18742 34135 ft 397 kts 201°
2026-04-28 07:19 25.62156 6.17310 34151 ft 399 kts 201°
2026-04-28 07:20 25.56758 6.15884 34148 ft 397 kts 201°
2026-04-28 07:20 25.51379 6.14467 34150 ft 396 kts 202°
2026-04-28 07:21 25.45926 6.13027 34154 ft 398 kts 202°
2026-04-28 07:21 25.40554 6.11615 34158 ft 395 kts 202°
2026-04-28 07:22 25.32427 6.09473 34160 ft 396 kts 202°
2026-04-28 07:22 25.27040 6.08058 34170 ft 397 kts 202°
2026-04-28 07:23 25.21654 6.06646 34163 ft 396 kts 202°
2026-04-28 07:23 25.16263 6.05231 34160 ft 396 kts 202°
2026-04-28 07:24 25.10851 6.03813 34151 ft 396 kts 202°
2026-04-28 07:24 25.05447 6.02399 34141 ft 393 kts 202°
2026-04-28 07:25 25.00087 6.00998 34145 ft 396 kts 202°
2026-04-28 07:25 24.94731 5.99596 34137 ft 395 kts 202°
2026-04-28 07:26 24.89327 5.98187 34147 ft 393 kts 202°
2026-04-28 07:26 24.83960 5.96786 34150 ft 395 kts 202°
2026-04-28 07:27 24.78610 5.95392 34135 ft 393 kts 203°
2026-04-28 07:27 24.73277 5.94003 34154 ft 394 kts 202°
2026-04-28 07:28 24.67892 5.92602 34153 ft 393 kts 202°
2026-04-28 07:28 24.62550 5.91212 34167 ft 393 kts 203°
2026-04-28 07:29 24.57179 5.89819 34173 ft 393 kts 203°
2026-04-28 07:29 24.51788 5.88418 34181 ft 394 kts 203°
2026-04-28 07:30 24.46432 5.87035 34170 ft 394 kts 203°
2026-04-28 07:30 24.41068 5.85641 34172 ft 393 kts 203°
2026-04-28 07:31 24.35714 5.84258 34163 ft 394 kts 203°
2026-04-28 07:31 24.30379 5.82875 34157 ft 392 kts 203°
2026-04-28 07:32 24.25064 5.81502 34159 ft 393 kts 203°
2026-04-28 07:32 24.19722 5.80125 34147 ft 394 kts 203°
2026-04-28 07:33 24.14387 5.78747 34163 ft 393 kts 203°
2026-04-28 07:33 24.09050 5.77371 34171 ft 394 kts 203°
2026-04-28 07:34 24.03691 5.75995 34179 ft 394 kts 203°
2026-04-28 07:34 23.98354 5.74622 34184 ft 395 kts 202°
2026-04-28 07:35 23.93026 5.73250 34197 ft 393 kts 203°
2026-04-28 07:35 23.87662 5.71874 34198 ft 396 kts 203°
2026-04-28 07:36 23.82286 5.70492 34192 ft 396 kts 203°
2026-04-28 07:36 23.76924 5.69118 34202 ft 393 kts 203°
2026-04-28 07:37 23.71588 5.67753 34207 ft 395 kts 203°
2026-04-28 07:37 23.66260 5.66389 34235 ft 396 kts 203°
2026-04-28 07:38 23.60885 5.65013 34247 ft 397 kts 203°
2026-04-28 07:38 23.55522 5.63645 34248 ft 396 kts 203°
2026-04-28 07:39 23.50144 5.62270 34257 ft 396 kts 203°
2026-04-28 07:39 23.44767 5.60899 34291 ft 397 kts 203°
2026-04-28 07:40 23.39398 5.59532 34310 ft 397 kts 203°
2026-04-28 07:40 23.34038 5.58165 34331 ft 395 kts 203°
2026-04-28 07:41 23.28669 5.56799 34355 ft 393 kts 203°
2026-04-28 07:41 23.23285 5.55430 34392 ft 398 kts 203°
2026-04-28 07:42 23.17918 5.54068 34365 ft 396 kts 203°
2026-04-28 07:42 23.12544 5.52705 34331 ft 397 kts 203°
2026-04-28 07:43 23.07158 5.51336 34298 ft 396 kts 203°
2026-04-28 07:43 23.01769 5.49972 34268 ft 396 kts 203°
2026-04-28 07:44 22.96398 5.48610 34232 ft 395 kts 203°
2026-04-28 07:44 22.91011 5.47250 34212 ft 397 kts 202°
2026-04-28 07:45 22.85578 5.45874 34192 ft 397 kts 202°
2026-04-28 07:45 22.80631 5.43725 34176 ft 370 kts 229°
2026-04-28 07:46 22.79117 5.41531 34194 ft 363 kts 242°
2026-04-28 07:46 22.77769 5.39243 34169 ft 363 kts 242°
2026-04-28 07:46 22.75093 5.34574 34185 ft 363 kts 242°
2026-04-28 07:47 22.72447 5.29924 34202 ft 362 kts 242°
2026-04-28 07:47 22.69822 5.25287 34202 ft 362 kts 242°
2026-04-28 07:48 22.67176 5.20619 34192 ft 363 kts 242°
2026-04-28 07:48 22.64527 5.15939 34173 ft 363 kts 242°
2026-04-28 07:49 22.61894 5.11295 34164 ft 363 kts 242°
2026-04-28 07:49 22.59248 5.06629 34141 ft 364 kts 242°
2026-04-28 07:50 22.56597 5.01962 34121 ft 363 kts 242°
2026-04-28 07:50 22.53950 4.97306 34106 ft 364 kts 242°
2026-04-28 07:51 22.51305 4.92650 34096 ft 363 kts 242°
2026-04-28 07:51 22.48651 4.87990 34088 ft 363 kts 242°
2026-04-28 07:52 22.46007 4.83346 34079 ft 364 kts 242°
2026-04-28 07:52 22.43346 4.78683 34070 ft 364 kts 242°
2026-04-28 07:53 22.40683 4.74017 34063 ft 364 kts 242°
2026-04-28 07:53 22.38024 4.69358 34056 ft 363 kts 242°
2026-04-28 07:54 22.35375 4.64732 34051 ft 364 kts 242°
2026-04-28 07:54 22.32719 4.60084 34044 ft 364 kts 242°
2026-04-28 07:55 22.30050 4.55427 34034 ft 365 kts 242°
2026-04-28 07:55 22.27366 4.50744 34020 ft 365 kts 242°
2026-04-28 07:56 22.24699 4.46096 34012 ft 364 kts 241°
2026-04-28 07:56 22.22042 4.41474 34012 ft 365 kts 242°
2026-04-28 07:57 22.19366 4.36809 34013 ft 365 kts 242°
2026-04-28 07:57 22.16690 4.32165 34027 ft 365 kts 242°
2026-04-28 07:58 22.14014 4.27514 34028 ft 366 kts 241°
2026-04-28 07:58 22.11323 4.22844 34016 ft 366 kts 241°
2026-04-28 07:59 22.08641 4.18194 34006 ft 366 kts 241°
2026-04-28 07:59 22.05967 4.13560 33998 ft 366 kts 241°
2026-04-28 08:00 22.03267 4.08892 33994 ft 365 kts 241°
2026-04-28 08:00 22.00584 4.04251 33992 ft 366 kts 241°
2026-04-28 08:01 21.97886 3.99587 33986 ft 366 kts 241°
2026-04-28 08:01 21.95206 3.94958 33985 ft 364 kts 241°
2026-04-28 08:02 21.92512 3.90314 33987 ft 365 kts 241°
2026-04-28 08:02 21.89816 3.85672 33983 ft 365 kts 241°
2026-04-28 08:03 21.87118 3.81021 33992 ft 367 kts 241°
2026-04-28 08:03 21.84414 3.76371 33987 ft 366 kts 241°
2026-04-28 08:04 21.81723 3.71749 33991 ft 367 kts 241°
2026-04-28 08:04 21.79010 3.67090 33988 ft 367 kts 241°
2026-04-28 08:05 21.76309 3.62455 33992 ft 367 kts 241°
2026-04-28 08:05 21.73596 3.57797 33991 ft 366 kts 241°
2026-04-28 08:06 21.70949 3.53115 33994 ft 367 kts 242°
2026-04-28 08:06 21.68313 3.48418 33992 ft 366 kts 242°
2026-04-28 08:07 21.65669 3.43718 33995 ft 367 kts 242°
2026-04-28 08:07 21.63035 3.39033 33994 ft 367 kts 242°
2026-04-28 08:08 21.60393 3.34335 34005 ft 368 kts 241°
2026-04-28 08:08 21.57740 3.29631 34017 ft 369 kts 242°
2026-04-28 08:09 21.55091 3.24937 34017 ft 368 kts 242°
2026-04-28 08:09 21.52442 3.20232 34018 ft 367 kts 242°
2026-04-28 08:10 21.49793 3.15548 34023 ft 367 kts 242°
2026-04-28 08:10 21.47149 3.10873 34022 ft 367 kts 242°
2026-04-28 08:11 21.44504 3.06196 34025 ft 368 kts 241°
2026-04-28 08:11 21.41842 3.01495 34016 ft 368 kts 241°
2026-04-28 08:12 21.39184 2.96800 34010 ft 367 kts 242°
2026-04-28 08:12 21.36551 2.92142 34008 ft 367 kts 241°
2026-04-28 08:13 21.33902 2.87460 34007 ft 368 kts 242°
2026-04-28 08:13 21.31242 2.82768 34005 ft 367 kts 241°
2026-04-28 08:14 21.28575 2.78068 34006 ft 368 kts 241°
2026-04-28 08:14 21.25923 2.73395 34006 ft 369 kts 241°
2026-04-28 08:15 21.23248 2.68691 34000 ft 368 kts 241°
2026-04-28 08:15 21.20593 2.64019 33996 ft 368 kts 241°
2026-04-28 08:16 21.17925 2.59334 33992 ft 369 kts 241°
2026-04-28 08:16 21.15247 2.54631 33988 ft 369 kts 241°
2026-04-28 08:17 21.12574 2.49944 33982 ft 368 kts 242°
2026-04-28 08:17 21.09925 2.45304 33983 ft 368 kts 242°
2026-04-28 08:18 21.07249 2.40614 33983 ft 369 kts 242°
2026-04-28 08:18 21.04571 2.35927 33982 ft 367 kts 241°
2026-04-28 08:19 21.01911 2.31279 33996 ft 367 kts 241°
2026-04-28 08:19 20.99245 2.26621 34000 ft 367 kts 241°
2026-04-28 08:20 20.96589 2.21986 33999 ft 367 kts 241°
2026-04-28 08:20 20.93916 2.17324 34006 ft 367 kts 241°
2026-04-28 08:21 20.91248 2.12677 34016 ft 369 kts 241°
2026-04-28 08:21 20.88562 2.07998 34021 ft 368 kts 241°
2026-04-28 08:22 20.85889 2.03345 34019 ft 369 kts 241°
2026-04-28 08:22 20.83202 1.98678 34018 ft 368 kts 241°
2026-04-28 08:23 20.80510 1.94005 34012 ft 368 kts 241°
2026-04-28 08:23 20.77829 1.89348 34014 ft 367 kts 241°
2026-04-28 08:24 20.75151 1.84704 34012 ft 369 kts 241°
2026-04-28 08:24 20.72466 1.80033 34014 ft 368 kts 241°
2026-04-28 08:25 20.69806 1.75382 34010 ft 368 kts 241°
2026-04-28 08:26 20.65780 1.68354 34010 ft 368 kts 241°
2026-04-28 08:26 20.63101 1.63681 34004 ft 368 kts 241°
2026-04-28 08:27 20.60430 1.59022 34001 ft 369 kts 241°
2026-04-28 08:27 20.57756 1.54368 34000 ft 370 kts 241°
2026-04-28 08:28 20.55067 1.49693 33995 ft 370 kts 241°
2026-04-28 08:28 20.52378 1.45017 33992 ft 369 kts 241°
2026-04-28 08:29 20.49691 1.40349 33995 ft 372 kts 241°
2026-04-28 08:29 20.47002 1.35674 33991 ft 369 kts 241°
2026-04-28 08:30 20.44298 1.30991 34008 ft 371 kts 241°
2026-04-28 08:30 20.41589 1.26294 34007 ft 371 kts 241°
2026-04-28 08:31 20.38898 1.21638 34007 ft 371 kts 241°
2026-04-28 08:31 20.36185 1.16947 34007 ft 370 kts 241°
2026-04-28 08:32 20.33479 1.12265 34004 ft 371 kts 241°
2026-04-28 08:32 20.30783 1.07610 34004 ft 372 kts 241°
2026-04-28 08:33 20.28064 1.02919 33998 ft 371 kts 240°
2026-04-28 08:33 20.26356 1.00844 33952 ft 380 kts 221°
2026-04-28 08:33 20.23891 0.99687 33984 ft 400 kts 200°
2026-04-28 08:33 20.21022 0.99605 33983 ft 425 kts 179°
2026-04-28 08:34 20.18100 1.00394 34015 ft 431 kts 174°
2026-04-28 08:34 20.12286 1.01922 33996 ft 428 kts 175°
2026-04-28 08:35 20.06437 1.03358 33999 ft 430 kts 175°
2026-04-28 08:35 20.00580 1.04764 33994 ft 429 kts 176°
2026-04-28 08:36 19.94768 1.06145 33994 ft 429 kts 175°
2026-04-28 08:36 19.88934 1.07527 34001 ft 430 kts 175°
2026-04-28 08:37 19.83083 1.08911 34004 ft 430 kts 175°
2026-04-28 08:37 19.77256 1.10288 34011 ft 429 kts 175°
2026-04-28 08:38 19.71427 1.11664 34011 ft 429 kts 175°
2026-04-28 08:38 19.65564 1.13048 34017 ft 430 kts 175°
2026-04-28 08:39 19.59704 1.14431 34022 ft 430 kts 175°
2026-04-28 08:39 19.53865 1.15808 33951 ft 421 kts 175°
2026-04-28 08:39 19.51044 1.16474 33014 ft 419 kts 175°
2026-04-28 08:40 19.48201 1.17142 32188 ft 415 kts 175°
2026-04-28 08:40 19.45395 1.17798 31468 ft 409 kts 175°
2026-04-28 08:40 19.42637 1.18448 30784 ft 403 kts 175°
2026-04-28 08:40 19.39915 1.19087 30059 ft 397 kts 174°
2026-04-28 08:41 19.37264 1.19708 29390 ft 391 kts 174°
2026-04-28 08:41 19.34623 1.20331 28647 ft 386 kts 174°
2026-04-28 08:41 19.32012 1.20942 27960 ft 380 kts 173°
2026-04-28 08:41 19.29445 1.21548 27339 ft 373 kts 173°
2026-04-28 08:42 19.26928 1.22137 26591 ft 370 kts 173°
2026-04-28 08:42 19.24447 1.22719 25897 ft 365 kts 173°
2026-04-28 08:42 19.21977 1.23296 25148 ft 363 kts 173°
2026-04-28 08:42 19.19523 1.23872 24432 ft 360 kts 173°
2026-04-28 08:43 19.17086 1.24443 23717 ft 356 kts 172°
2026-04-28 08:43 19.14693 1.25003 23013 ft 352 kts 172°
2026-04-28 08:43 19.12309 1.25563 22308 ft 348 kts 172°
2026-04-28 08:43 19.09973 1.26108 21653 ft 344 kts 172°
2026-04-28 08:44 19.07651 1.26652 21008 ft 339 kts 171°
2026-04-28 08:44 19.05340 1.27194 20345 ft 336 kts 171°
2026-04-28 08:44 19.03085 1.27720 19740 ft 333 kts 171°
2026-04-28 08:44 19.00815 1.28253 19212 ft 328 kts 171°
2026-04-28 08:45 18.98598 1.28772 18666 ft 324 kts 170°
2026-04-28 08:45 18.96405 1.29283 18092 ft 322 kts 170°
2026-04-28 08:45 18.94253 1.29787 17547 ft 318 kts 170°
2026-04-28 08:45 18.92077 1.30296 16997 ft 315 kts 169°
2026-04-28 08:46 18.89945 1.30794 16419 ft 313 kts 169°
2026-04-28 08:46 18.87827 1.31293 15895 ft 310 kts 169°
2026-04-28 08:46 18.85739 1.31781 15328 ft 309 kts 169°
2026-04-28 08:46 18.83657 1.32268 14797 ft 306 kts 168°
2026-04-28 08:47 18.81564 1.32756 14238 ft 305 kts 168°
2026-04-28 08:47 18.79512 1.33235 13726 ft 302 kts 168°
2026-04-28 08:47 18.77448 1.33718 13201 ft 300 kts 168°
2026-04-28 08:47 18.75442 1.34186 12682 ft 298 kts 167°
2026-04-28 08:48 18.73406 1.34663 12137 ft 297 kts 168°
2026-04-28 08:48 18.71377 1.35136 11605 ft 295 kts 167°
2026-04-28 08:48 18.69391 1.35598 11312 ft 284 kts 167°
2026-04-28 08:48 18.67541 1.36028 11297 ft 264 kts 168°
2026-04-28 08:49 18.65725 1.36051 11023 ft 256 kts 187°
2026-04-28 08:49 18.63961 1.35842 10619 ft 256 kts 186°
2026-04-28 08:49 18.62179 1.35622 10192 ft 256 kts 186°
2026-04-28 08:49 18.60408 1.35397 9798 ft 255 kts 186°
2026-04-28 08:50 18.58662 1.35177 9537 ft 246 kts 186°
2026-04-28 08:50 18.57109 1.34642 9485 ft 227 kts 207°
2026-04-28 08:50 18.55748 1.33905 9435 ft 211 kts 206°
2026-04-28 08:50 18.54491 1.33214 9258 ft 194 kts 206°
2026-04-28 08:51 18.53285 1.32565 8593 ft 200 kts 205°
2026-04-28 08:51 18.51973 1.32045 7889 ft 205 kts 200°
2026-04-28 08:51 18.50631 1.31551 7326 ft 202 kts 199°
2026-04-28 08:51 18.49252 1.31292 6841 ft 198 kts 189°
2026-04-28 08:52 18.47914 1.31080 6401 ft 185 kts 190°
2026-04-28 08:52 18.46659 1.30976 5717 ft 187 kts 177°
2026-04-28 08:52 18.45534 1.31622 5042 ft 190 kts 134°
2026-04-28 08:52 18.44853 1.32758 4575 ft 184 kts 120°
2026-04-28 08:53 18.44412 1.33976 4017 ft 176 kts 94°
2026-04-28 08:53 18.44163 1.35207 3513 ft 167 kts 109°
2026-04-28 08:53 18.43781 1.36292 3065 ft 150 kts 107°
2026-04-28 08:53 18.43569 1.37304 2595 ft 139 kts 92°
2026-04-28 08:54 18.43570 1.38294 2273 ft 138 kts 85°
2026-04-28 08:54 18.43583 1.39294 2037 ft 137 kts 88°
2026-04-28 08:54 18.43553 1.40287 1821 ft 133 kts 89°
2026-04-28 08:54 18.43524 1.41235 1608 ft 127 kts 88°
2026-04-28 08:55 18.43510 1.42118 1504 ft 102 kts 90°
2026-04-28 08:55 18.43503 1.42546 1496 ft 14 kts 90°
2026-04-28 08:55 18.43502 1.42572 1496 ft 0 kts 97°
2026-04-28 08:56 18.43494 1.42594 1496 ft 6 kts 118°
2026-04-28 08:56 18.43490 1.42626 1496 ft 2 kts 53°
2026-04-28 08:56 18.43503 1.42629 1496 ft 2 kts 338°
2026-04-28 08:56 18.43499 1.42586 1496 ft 6 kts 252°
2026-04-28 08:57 18.43498 1.42547 1496 ft 4 kts 271°
2026-04-28 08:57 18.43499 1.42501 1496 ft 10 kts 272°
2026-04-28 08:57 18.43506 1.42402 1498 ft 15 kts 276°
2026-04-28 08:57 18.43496 1.42343 1499 ft 2 kts 220°
2026-04-28 08:58 18.43480 1.42335 1499 ft 5 kts 193°
2026-04-28 08:58 18.43433 1.42332 1499 ft 6 kts 181°
2026-04-28 08:58 18.43386 1.42333 1499 ft 5 kts 158°
2026-04-28 08:58 18.43370 1.42357 1498 ft 4 kts 114°
2026-04-28 08:59 18.43363 1.42366 1498 ft 1 kts 157°
2026-04-28 08:59 18.43344 1.42362 1499 ft 3 kts 218°
2026-04-28 08:59 18.43341 1.42346 1499 ft 0 kts 276°